Regional Weather Roundup
Issued by NWS

Home | Current Version | Previous Version | Text Only | Print | Product List | Glossary Off
Versions: 1 2 3 4 5 6 7 8 9 10 11 12 13 14 15 16 17 18 19 20 21 22 23 24 25 26 27 28 29 30 31 32 33 34 35 36 37 38 39 40 41 42 43 44 45 46 47 48 49 50

000
ASUS43 KLOT 262209
RWRIL

ILLINOIS REGIONAL WEATHER ROUNDUP
NATIONAL WEATHER SERVICE CHICAGO/ROMEOVILLE IL
500 PM CDT FRI MAY 26 2017

NOTE: "FAIR" INDICATES FEW OR NO CLOUDS BELOW 12,000 FEET WITH NO
SIGNIFICANT WEATHER AND/OR OBSTRUCTIONS TO VISIBILITY.

* THESE STATIONS ARE NOT UNDER NWS QUALITY CONTROL. THEY ALSO MAY NOT
  REPORT WEATHER SUCH AS PRECIPITATION OR FOG.

ILZ001-002-007-009-015-016-024-262300-
NORTHWEST ILLINOIS

CITY           SKY/WX    TMP DP  RH WIND       PRES   REMARKS
MOLINE         CLOUDY    69  61  75 NE7       29.76R
STERLING*      CLOUDY    63  61  93 NE12      29.78S
SAVANNA*       CLOUDY    66  61  86 NE9G16    29.78S
$$

ILZ003-004-008-010-011-017-018-262300-
NORTH CENTRAL ILLINOIS

CITY           SKY/WX    TMP DP  RH WIND       PRES   REMARKS
ROCKFORD       LGT RAIN  62  59  90 E12       29.82R FOG
FREEPORT*      CLOUDY    60  58  94 E10       29.82S
ROCHELLE*      HVY RAIN  60  59  97 NE18      29.80R
DE KALB*       CLOUDY    61  59  95 N10       29.80R FOG
PERU*          CLOUDY    68  64  87 S6        29.76F
$$

ILZ005-006-012>014-019>023-262300-
NORTHEAST ILLINOIS

CITY           SKY/WX    TMP DP  RH WIND       PRES   REMARKS
CHICAGO-OHARE  RAIN      58  54  86 NE14      29.79F FOG
CHICAGO-MIDWAY LGT RAIN  60  55  83 E14       29.80S
AURORA         LGT RAIN  62  61  96 E15       29.77F FOG
LANSING*       RAIN      61  59  94 NE8       29.80F
JOLIET*        CLOUDY    66  64  94 E7        29.77F
WAUKEGAN       LGT RAIN  55  54  96 NE7       29.83F FOG
DUPAGE AIRPORT HVY RAIN  60  59  96 NE10      29.79S FOG
KANKAKEE*      RAIN      65  62  92 SE13G21   29.75F
WHEELING       RAIN      55  54  96 NE7       29.83F FOG
MORRIS*        CLOUDY    65  62  89 CALM      29.76S
ROMEOVILLE*    LGT RAIN  62  62  99 E15       29.77F
NORTHERLY ISL    N/A     56  51  84 N10         N/A
$$

LMZ740>746-262300-
SOUTHERN LAKE MICHIGAN

STATION/POSITION SKY/WX   TEMP    WIND        PRES    VSBY  WAVE
                          AIR SEA DIR/SP/G                  HT/PER
                          (F)     (DEG/KT/KT) (MB)    (MI)  (FT/S)
SOUTHERN BUOY              49 48   50/  2/  2 1011.2          1
WILMETTE HARBOR            49 52                N/A           1/ 4
HARRISON CRIB              56      40/  8/ 10   N/A
BURNHAM HARBOR             56      10/  7/ 11   N/A
CALUMET HARBOR             57      50/  7/ 10 1009.0R
BURNS HARBOR               57      70/ 12/ 14 1009.8F
MICHIGAN CITY              57      50/ 16/ 17   N/A
MICHIGAN CITY 6N           55 53   60/ 10/ 12   N/A           1/ 3
ST. JOSEPH                 58 56   60/  8/  8 1010.3          1/ 4
$$

ILZ025>027-034>036-040-047-049-050-058-095>099-262300-
WEST-CENTRAL ILLINOIS

CITY           SKY/WX    TMP DP  RH WIND       PRES   REMARKS
QUINCY         PTSUNNY   76  68  76 N13       29.75R
GALESBURG*     PTSUNNY   72  64  76 NW7       29.76R
MACOMB*        CLOUDY    73  64  73 W5        29.78R
JACKSONVILLE*  CLOUDY    79  66  65 W5        29.74R HX  81
PITTSFIELD*    CLOUDY    80  67  65 SW5       29.75S HX  82
$$

ILZ028>032-037-038-041>044-048-051>054-059>061-262300-
CENTRAL ILLINOIS

CITY           SKY/WX    TMP DP  RH WIND       PRES   REMARKS
PONTIAC        CLOUDY    67  67  98 E5        29.76R
BLOOMINGTON    CLOUDY    69  65  86 N15       29.76S
DECATUR        PTSUNNY   79  65  62 SW17      29.74S HX  81
PEORIA         PTSUNNY   71  66  84 CALM      29.75F
LACON*         CLOUDY    68  65  90 SE3       29.75S
LINCOLN*       PTSUNNY   82  67  61 SW3       29.73S HX  84
SPRINGFIELD    CLOUDY    82  67  60 SW3       29.73S HX  84
TAYLORVILLE    CLOUDY    78  65  65 S6        29.74S HX  80
$$

ILZ033-039-045-046-055>057-062-063-262300-
EAST-CENTRAL ILLINOIS

CITY           SKY/WX    TMP DP  RH WIND       PRES   REMARKS
CHAMPAIGN      LGT RAIN  76  66  71 SE18      29.73F
RANTOUL*       CLOUDY    78  68  69 S16       29.72F HX  81
MATTOON        CLOUDY    78  65  63 S10       29.75F HX  80
PARIS*         PTSUNNY   78  67  71 S13       29.77F
$$

ILZ079-100>102-262300-
SOUTHWEST ILLINOIS

CITY           SKY/WX    TMP DP  RH WIND       PRES   REMARKS
BELLEVILLE     PTSUNNY   77  66  70 SW14      29.76S
CAHOKIA*       PTSUNNY   78  65  63 SW7       29.75R HX  80
SPARTA*        CLOUDY    74  66  74 S13       29.78F
$$

ILZ064>066-069>071-074>076-080>082-084>086-088>090-092>094-262300-
SOUTH-CENTRAL ILLINOIS

CITY           SKY/WX    TMP DP  RH WIND       PRES   REMARKS
CARBONDALE     CLOUDY    76  66  71 SW16      29.79R
CAIRO*         CLOUDY    77  65  67 SW10      29.81R
EFFINGHAM*     CLOUDY    77  65  65 S9        29.79R
MARION         CLOUDY    79  64  61 SW12      29.80R HX  81
MT. VERNON       N/A     76  66  71 W14       29.78R
CENTRALIA*     CLOUDY    76  67  72 SW16G24   29.77R
SALEM*         CLOUDY    78  65  65 SW16      29.78R HX  80
METROPOLIS*    CLOUDY    80  64  59 SW15G22   29.82R HX  81
$$

ILZ067-068-072-073-078-083-087-091-262300-
SOUTHEAST ILLINOIS

CITY           SKY/WX    TMP DP  RH WIND       PRES   REMARKS
LAWRENCEVILLE  MOSUNNY   82  59  45 S17G24    29.79R HX  82
FLORA*         CLOUDY    80  64  59 S5        29.77S HX  81
FAIRFIELD*     CLOUDY    81  62  52 SW7       29.76S HX  82
HARRISBURG*    CLOUDY    81  63  53 SW16G26   29.79R HX  83
ROBINSON*      CLOUDY    78  61  55 SW14      29.79R
CARMI*         CLOUDY    82  61  47 SW14G20   29.77R HX  83
$$

ABBREVIATIONS USED IN REMARKS
   TC - TEMPERATURE IN CELSIUS
  WCI - WIND CHILL INDEX
   HX - HEAT INDEX
  VSB - VISIBILITY
$$





USA.gov is the U.S. government's official web portal to all federal, state and local government web resources and services.